Location: G�ndlingen
(48.0142°N, 7.6396°E)
Time: 18:13:55
(UTC+00:00)

Cosmos 1825 Rocket - Pass Details

Date: 05 July 2020
Orbit: 603 x 631 km, 82.5° (Epoch: 12 August)

Event Time Altitude Azimuth Distance (km) Brightness Sun altitude
Exits shadow 20:10:12 - 169° (S) 2,725 6.4 -5.8°
Reaches altitude 10° 20:12:04 10° 163° (SSE) 1,996 5.6 -6.1°
Maximum altitude 20:16:16 43° 92° (E) 889 4.1 -6.6°
Drops below altitude 10° 20:20:30 10° 22° (NNE) 2,023 6.5 -7.1°
Sets 20:22:50 0° 16° (NNE) 2,937 7.5 -7.3°
